Regional Weather Roundup
Issued by NWS Cleveland, OH

Home | Current Version | Previous Version | Graphics & Text | Print | Product List | Glossary On
Versions: 1 2 3 4 5 6 7 8 9 10 11 12 13 14 15 16 17 18 19 20 21 22 23 24 25 26 27 28 29 30 31 32 33 34 35 36 37 38 39 40 41 42 43 44 45 46 47 48 49 50
000
ASUS41 KCLE 292302
RWRCLE
OHIO REGIONAL WEATHER ROUNDUP
NATIONAL WEATHER SERVICE CLEVELAND, OH
700 PM EDT WED MAR 29 2017

NOTE: "FAIR" INDICATES FEW OR NO CLOUDS BELOW 12,000 FEET WITH NO
SIGNIFICANT WEATHER AND/OR OBSTRUCTIONS TO VISIBILITY.

OHZ001>008-015>018-024>027-034-035-043-044-300000-
   NORTHWEST OHIO

CITY           SKY/WX    TMP DP  RH WIND       PRES   REMARKS
DEFIANCE       CLOUDY    49  30  48 E13       30.20S
FINDLAY        PTCLDY    51  30  44 NE22      30.18S
TOLEDO EXPRESS CLOUDY    49  31  49 E13       30.20F
TOLEDO EXEC    PTCLDY    49  34  56 E10       30.22F
LIMA           SUNNY     52  36  54 NE16      30.16S
$$

OHZ009>014-019>023-028>033-038-089-300000-
   NORTHEAST OHIO

CITY           SKY/WX    TMP DP  RH WIND       PRES   REMARKS
CLE-HOPKINS    MOCLDY    51  30  44 NE12      30.25F
CLE-LAKEFRONT  PTCLDY    43  35  73 NE7       30.24R
CUY CO. ARPT   MOCLDY    52  32  46 E13       30.24S
LORAIN-ELYRIA  PTCLDY    48  30  49 E12       30.23F
ASHTABULA      CLOUDY    49  30  48 NE6       30.25R
AKRON-CANTON   PTCLDY    56  31  38 NE8       30.19R
WOOSTER        PTCLDY    51  34  52 N12       30.20R
MANSFIELD      CLEAR     50  35  56 N15       30.19R
YOUNGSTOWN     MOCLDY    51  30  44 N13       30.22R
$$

OHZ042-051>053-060>062-070>072-077>081-300000-
  SOUTHWEST OHIO

CITY           SKY/WX    TMP DP  RH WIND       PRES   REMARKS
CINC-COVINGTON CLOUDY    56  46  69 E13       30.06F
CINC-LUNKEN    SUNNY     57  47  69 E10       30.09F
HAMILTON       CLOUDY    58  46  64 E12       30.08F
DAYTON         PTSUNNY   58  38  47 E13       30.10F
WRIGHT-PAT AFB SUNNY     60  38  44 E13       30.10F
DAYTON GENERAL CLOUDY    58  41  53 E9        30.08F
WILMINGTON     SUNNY     56  43  61 E8        30.10F
$$

OHZ036-037-039>041-045>050-054>059-063>069-073>076-082>088-300000-
  CENTRAL AND SOUTHEAST OHIO

CITY           SKY/WX    TMP DP  RH WIND       PRES   REMARKS
COLUMBUS       PTCLDY    61  37  41 NE8       30.13R
OSU AIRPORT    CLEAR     59  37  44 NE8       30.12S
BOLTON FIELD   CLEAR     61  37  41 E7        30.13S
RICKENBACK AFB CLEAR     60  38  43 E8        30.12F
NEWARK         CLEAR     61  33  35 E9        30.12F
MARION         PTCLDY    52  39  61 NE16      30.17S
LANCASTER      CLEAR     63  37  38 E8        30.13S
ZANESVILLE     CLEAR     62  34  35 NE9       30.14S
NEW PHILLY     NOT AVBL
$$




USA.gov is the U.S. government's official web portal to all federal, state and local government web resources and services.